Location: Bannatyne
(13.0833°N, 59.5333°W)
Time: 15:35:40
(UTC+00:00)

deb Explorer IX - Pass Details

Date: 25 January 2020
Orbit: 549 x 1099 km, 38.8° (Epoch: 23 February)

Event Time Altitude Azimuth Distance (km) Brightness Sun altitude
Rises 06:16:01 0° 327° (NNW) 3,868 - -59.3°
Reaches altitude 10° 06:20:29 10° 352° (N) 2,848 - -58.2°
Maximum altitude 06:23:51 14° 21° (NNE) 2,503 - -57.4°
Drops below altitude 10° 06:27:03 10° 50° (NE) 2,698 - -56.7°
Sets 06:31:03 0° 75° (ENE) 3,521 - -55.7°
Exits shadow 06:31:07 - 76° (ENE) 3,538 ? -55.7°
